RH
21 17 19 19 21 22 23 25 26 27 28 29 28 29 28 28 28 26 25 23 22 21 20 20 19 19 18 18 19 19 21 22 23 24 25 25 24 23 22 20 16 11 8 7 9 11 12 9 7 6 6 6 6 7 9 11 11 11 11 11 10 10 10 10 12 15 18 20 21 21 20 20 19 19 19 19 18 18 18 18 18 19 20 21 22
30 20 19 20 21 21 23 24 25 26 27 27 28 28 28 27 26 26 24 22 21 20 19 19 19 18 18 17 18 19 20 21 23 23 24 25 25 24 24 23 21 17 12 8 7 8 10 10 7 5 5 5 6 8 9 11 11 11 11 10 10 10 11 12 14 17 19 21 22 22 22 21 20 19 19 19 19 19 19 19 19 20 22 24 26
39 27 21 20 21 22 22 24 25 25 26 26 27 27 27 26 25 24 22 21 20 19 19 18 19 18 18 17 17 18 19 20 21 22 23 24 25 25 24 24 23 21 17 12 8 7 8 10 8 5 4 5 6 8 10 10 11 10 10 10 11 11 13 15 17 19 20 21 22 22 22 22 20 19 18 18 19 20 21 21 22 24 25 26 28
42 33 25 20 20 22 22 23 24 25 26 26 26 25 25 25 24 23 21 20 19 18 18 18 18 18 18 17 17 18 18 19 20 21 22 23 24 24 24 24 24 23 21 16 11 8 8 8 8 6 4 5 7 9 10 10 10 11 11 11 11 13 15 17 19 20 20 21 21 20 20 21 20 19 18 19 20 21 22 24 25 27 27 28 29
42 34 26 20 19 21 23 23 24 24 25 25 25 24 24 24 22 21 20 19 18 18 18 18 18 17 18 17 17 18 18 19 20 21 21 22 23 24 24 24 24 24 23 19 15 10 8 8 8 6 5 6 7 9 10 10 10 11 11 11 12 14 16 18 19 20 19 19 19 19 18 19 20 19 19 21 23 23 24 25 27 27 27 28 30
44 36 26 21 20 20 23 22 23 24 24 24 24 23 23 22 21 20 19 18 18 18 17 17 17 18 18 17 17 17 18 18 19 20 21 21 22 23 23 24 24 24 23 21 18 13 9 8 8 7 6 7 8 9 10 11 11 11 11 13 14 16 18 19 20 20 19 19 18 17 18 18 19 19 21 23 24 25 25 26 26 26 26 27 29
46 41 29 22 20 20 22 22 22 23 23 23 23 22 22 21 20 19 18 18 18 18 17 17 17 18 17 17 17 18 18 18 19 19 20 21 21 22 23 23 23 24 23 22 20 16 11 8 8 8 8 8 9 10 10 11 11 12 13 14 16 18 19 20 23 23 26 27 20 18 19 18 19 21 23 24 25 25 25 26 26 25 25 26 29
45 44 34 24 20 20 21 22 22 22 22 22 22 21 20 20 19 18 18 17 18 17 17 17 17 17 17 17 17 18 18 18 19 19 20 20 21 21 22 22 23 23 23 23 21 17 13 8 8 8 9 9 10 10 11 12 12 13 15 16 17 18 18 21 24 26 33 33 21 19 20 18 20 22 24 24 25 25 25 25 25 25 25 26 28
44 46 39 28 21 19 20 21 21 21 21 21 21 20 19 19 18 18 18 18 18 18 18 17 17 17 17 17 18 18 18 19 19 19 19 20 21 21 21 22 22 23 23 23 21 19 15 10 8 8 9 9 10 11 12 13 14 15 17 18 18 18 19 22 24 27 35 31 19 18 19 20 22 23 24 24 25 25 25 25 24 24 24 26 28
47 50 44 33 24 20 20 20 20 19 19 20 19 19 18 18 18 18 18 19 18 18 18 17 17 17 17 17 18 18 18 19 19 19 20 20 20 21 21 21 22 22 23 22 22 20 16 11 8 7 9 9 10 11 13 14 16 18 19 20 19 19 20 22 23 23 27 23 17 20 21 23 24 23 24 24 25 25 25 25 24 24 24 25 27
47 52 46 35 26 21 20 19 19 19 18 18 18 18 18 17 18 19 20 20 19 19 18 18 17 17 18 18 18 18 19 19 19 19 19 20 20 21 21 21 21 22 22 22 22 21 17 13 8 7 8 9 10 11 13 15 17 19 20 22 21 21 20 20 21 22 28 24 18 22 24 25 24 24 24 24 25 24 25 24 24 24 24 25 26
41 46 43 33 27 22 20 20 19 18 18 17 18 18 18 18 19 20 21 20 19 19 18 18 18 18 18 18 18 19 19 19 20 20 20 20 20 20 21 21 21 22 22 22 22 21 19 14 9 8 8 8 10 11 13 16 18 20 21 23 23 23 21 22 24 26 33 29 23 24 25 24 24 24 24 24 25 24 24 24 24 23 23 24 26
36 39 39 32 27 24 21 20 19 18 18 17 17 18 19 19 20 21 21 21 20 19 19 18 18 18 18 18 19 19 20 20 20 20 21 20 21 21 21 21 22 22 22 22 22 21 19 17 12 9 9 9 10 12 14 17 19 21 22 23 23 24 24 25 28 28 26 25 26 26 25 24 24 24 24 24 24 24 24 24 24 23 23 24 27
38 37 38 35 31 28 23 20 19 18 17 17 18 19 20 20 22 23 23 22 21 21 20 19 18 18 18 19 19 20 20 20 21 21 21 21 21 21 21 22 22 23 23 22 22 22 20 18 15 11 10 10 11 13 15 18 20 21 22 23 23 23 24 24 28 32 26 22 26 26 25 25 25 25 25 25 24 24 24 24 23 22 22 24 28
45 44 44 42 39 33 25 21 19 18 18 18 19 20 21 23 24 25 25 24 23 22 20 20 19 18 18 19 20 21 21 21 21 21 22 22 22 22 23 23 23 24 24 24 22 22 21 19 18 15 13 12 12 14 16 18 20 21 22 23 24 23 24 24 27 32 27 23 25 26 26 25 26 26 25 24 24 24 24 24 23 22 23 25 29
51 53 53 48 43 34 24 20 19 18 18 19 20 21 23 25 27 27 27 26 25 23 21 21 19 19 19 20 21 21 22 22 22 22 23 23 24 24 24 24 25 26 26 25 23 23 22 21 20 17 15 14 14 14 16 18 19 21 22 22 23 23 24 24 26 26 24 24 25 26 27 26 26 25 24 24 24 25 24 23 22 23 24 26 28
56 60 59 51 41 29 22 20 19 19 19 20 21 23 27 29 30 30 29 28 26 24 23 22 20 20 20 20 21 23 24 24 24 23 23 24 25 26 26 26 27 30 30 28 25 24 23 23 21 20 18 17 16 16 16 17 19 20 21 22 22 23 24 25 25 24 23 24 25 27 27 27 27 25 25 25 25 25 24 23 23 24 25 26 27
59 60 57 51 40 27 21 20 20 21 21 22 24 27 30 32 33 32 32 30 28 25 24 22 21 20 20 21 22 24 26 25 25 25 25 24 25 27 28 29 32 35 35 33 30 27 25 24 23 22 21 19 18 18 18 18 19 20 21 22 22 23 24 25 25 24 24 24 28 32 31 29 28 26 25 25 25 26 24 23 24 25 26 26 27
60 59 56 49 38 27 22 21 22 23 24 25 26 30 33 35 36 35 34 33 30 27 25 23 21 21 21 22 23 26 27 27 27 28 27 26 27 29 31 34 38 41 41 42 40 37 32 28 25 24 23 22 21 19 19 19 20 21 21 22 23 24 24 24 24 24 24 23 27 31 35 34 32 31 29 28 27 26 25 25 25 25 26 26 27
58 57 57 48 36 27 24 23 25 26 28 29 31 34 37 39 38 38 37 35 32 29 27 24 22 22 23 24 27 29 30 32 33 34 34 33 34 35 38 42 46 48 49 51 51 51 47 42 37 33 28 24 22 22 22 21 21 21 21 22 22 23 23 24 23 23 23 23 24 28 34 34 34 36 35 33 31 29 28 27 26 26 27 26 27
55 55 57 54 43 34 32 32 33 34 35 36 38 39 40 42 40 40 39 36 34 31 28 24 22 24 26 29 29 32 38 41 42 45 45 45 47 47 50 53 55 55 57 59 60 62 61 59 55 51 46 38 31 26 24 23 23 22 22 22 22 23 23 23 23 23 23 23 24 27 32 34 36 37 37 38 36 34 33 32 31 29 29 27 28
53 53 54 57 55 50 48 48 48 48 48 47 46 45 45 44 43 42 40 37 35 32 28 24 24 27 31 34 34 39 46 48 49 52 54 56 57 56 56 57 57 56 56 56 57 60 59 57 55 55 54 52 49 41 33 27 24 24 23 23 23 23 23 24 24 24 24 24 26 29 32 35 37 37 37 39 37 36 36 35 35 34 34 32 31
51 54 55 55 57 58 58 58 57 57 58 55 52 49 48 46 46 44 40 38 35 31 27 24 29 35 39 41 44 50 54 54 54 56 58 57 54 53 53 53 52 51 50 48 47 48 47 46 47 50 52 54 57 55 50 42 35 30 29 32 32 29 27 26 26 27 28 29 31 34 37 39 39 40 39 40 38 38 38 38 37 37 39 40 38
53 58 59 60 64 65 65 62 62 65 64 61 59 57 56 52 47 44 41 36 33 29 27 29 36 41 47 52 56 59 59 57 56 57 55 49 48 50 49 49 50 46 44 44 45 44 44 45 46 48 52 55 58 59 60 57 51 46 46 50 50 47 42 38 39 40 41 42 42 45 50 52 51 51 51 52 50 48 47 46 45 44 45 47 45
62 65 66 71 75 73 72 72 73 69 64 66 68 69 70 60 47 42 38 32 31 31 32 35 40 48 57 61 61 59 56 52 53 54 48 43 44 46 45 46 46 43 42 45 44 43 44 43 41 43 45 48 53 57 61 64 64 63 62 63 64 64 62 61 61 60 61 60 59 57 58 62 64 66 67 67 68 68 67 66 62 56 55 54 53
71 73 74 73 77 81 78 83 86 69 62 69 71 75 72 56 43 38 37 37 39 39 39 41 48 60 64 62 59 57 56 52 50 51 46 44 43 46 48 46 45 42 42 43 41 41 43 42 40 40 39 39 41 44 53 61 62 61 63 64 66 69 70 71 70 71 72 68 66 66 67 70 75 77 77 76 77 78 78 79 75 68 66 65 67
78 81 82 76 81 91 86 87 87 66 64 74 74 73 60 46 40 39 45 51 51 48 49 54 61 66 61 57 57 57 60 54 49 49 46 46 46 49 53 51 48 45 43 44 42 41 43 45 46 45 45 45 43 41 45 49 46 48 54 55 56 59 63 63 65 69 66 62 65 68 71 72 74 77 78 78 77 77 76 77 77 75 74 73 77
87 90 89 86 87 89 84 81 76 63 69 78 72 62 49 46 46 46 54 56 56 58 61 66 67 64 58 56 56 58 63 56 49 49 48 49 48 49 52 50 49 45 42 44 42 40 40 42 47 50 51 52 53 51 49 47 45 50 57 58 56 58 61 61 63 64 60 63 67 67 68 68 69 72 73 73 72 74 73 73 74 77 77 76 80
95 98 94 88 81 78 73 69 66 64 71 73 62 53 50 55 56 57 61 60 64 68 69 70 68 63 60 59 58 60 65 61 56 55 54 55 51 50 50 47 48 45 40 41 40 39 41 43 48 52 53 53 55 56 55 54 55 57 61 65 67 67 67 63 63 60 59 66 66 65 67 67 68 68 68 66 67 71 72 72 71 74 78 78 78
83 90 88 81 74 74 70 66 71 71 70 64 54 52 57 62 64 68 69 70 74 74 72 71 66 63 66 66 60 59 62 62 62 60 58 57 53 50 49 47 47 47 42 40 41 40 44 50 54 56 57 57 56 57 59 57 57 58 58 61 63 65 66 62 60 57 56 60 60 61 64 63 64 65 66 65 67 72 73 72 69 69 75 78 77
64 65 70 72 73 77 73 71 75 74 67 59 54 58 65 70 73 76 77 78 77 75 74 71 66 64 68 69 65 64 63 61 59 59 57 55 53 50 48 49 47 48 46 42 45 46 44 50 58 60 62 64 61 61 63 61 60 61 60 59 57 57 59 57 54 53 52 55 55 56 57 58 59 62 67 66 67 69 68 69 69 67 70 75 76
64 57 63 69 72 77 77 74 70 67 63 58 62 69 74 78 79 78 77 75 71 71 70 68 67 64 66 68 68 71 67 64 59 56 56 54 55 54 50 49 48 49 47 43 48 50 43 48 57 59 61 65 64 65 68 67 65 65 65 61 57 56 57 55 53 53 51 49 47 46 48 52 53 57 62 62 61 62 61 67 71 69 68 71 75
68 62 63 66 71 78 78 70 63 62 64 67 73 76 76 78 78 76 74 70 69 69 66 66 67 66 72 73 69 68 66 67 63 57 57 53 53 54 49 50 52 49 48 48 51 50 43 45 54 58 61 63 62 64 67 66 65 67 68 64 60 58 57 55 54 54 50 45 42 41 43 48 50 52 56 58 60 60 58 61 67 69 67 68 73
65 63 58 63 74 79 72 64 65 68 72 77 79 78 78 78 77 75 72 70 69 68 66 67 69 69 73 72 63 62 65 64 60 55 51 47 49 51 49 52 52 48 50 50 44 41 37 38 43 49 56 58 56 58 63 64 64 65 66 66 62 57 54 53 52 50 48 46 45 44 46 49 51 53 56 59 61 61 54 51 60 67 65 63 68
64 65 57 63 73 72 67 67 72 74 76 79 77 75 78 78 75 71 67 65 64 65 66 68 72 73 71 67 61 63 71 66 60 62 59 56 56 56 57 56 50 43 41 38 31 31 32 34 37 38 41 43 41 43 52 59 60 59 60 62 59 52 48 47 46 46 47 49 49 48 49 52 54 55 56 56 57 58 53 51 59 63 60 59 61
61 59 52 58 66 62 61 67 70 68 71 76 75 74 78 79 74 69 63 58 59 63 65 64 70 74 68 64 60 62 69 63 59 64 63 60 56 56 58 51 40 33 29 31 32 33 34 37 40 38 34 34 34 32 38 47 50 48 49 50 48 43 41 41 42 44 48 51 51 48 49 52 52 52 53 54 51 51 53 57 59 57 58 59 55
56 51 44 45 50 51 53 61 66 67 69 72 73 77 80 78 72 68 62 58 60 61 59 59 65 67 64 60 57 57 60 52 47 45 44 50 52 51 50 42 35 31 28 30 32 32 32 33 37 37 32 32 34 31 31 37 38 34 34 36 34 33 34 36 40 43 47 52 51 47 48 49 46 45 46 46 45 44 51 62 61 53 53 55 51
52 48 40 39 43 47 52 58 62 67 69 69 71 76 78 73 68 66 63 59 59 57 55 58 63 63 62 59 54 53 51 42 35 31 33 44 45 41 40 36 33 30 26 23 22 23 24 24 28 29 26 26 27 26 28 33 32 27 29 30 28 28 31 34 37 39 43 49 51 51 49 43 40 43 42 39 42 44 48 55 55 49 46 50 51
50 49 44 46 51 52 55 58 61 65 66 67 69 72 72 68 65 65 63 57 54 56 58 62 65 63 59 56 51 47 38 27 26 28 31 35 31 28 29 27 24 21 19 18 18 19 19 20 21 22 22 22 21 21 24 27 26 24 26 26 25 26 28 28 31 34 40 47 50 53 49 41 43 49 52 50 49 49 47 44 44 44 46 52 55
52 51 49 52 57 56 56 59 62 65 65 64 64 65 65 63 64 64 61 58 57 57 59 61 63 60 53 50 45 34 22 18 25 28 27 26 23 21 21 21 20 19 18 18 18 19 20 20 22 23 23 22 22 22 22 22 23 22 23 25 24 25 24 24 27 32 39 44 44 44 41 44 53 56 58 59 56 52 47 42 42 43 46 51 55
54 51 52 55 57 56 57 61 62 64 66 62 60 61 62 63 63 60 58 60 61 59 58 57 57 53 45 38 29 18 15 19 26 27 25 23 21 21 21 21 20 18 18 18 18 19 20 21 23 25 24 23 23 23 23 22 22 22 22 24 24 23 23 23 26 28 31 34 34 35 37 45 53 53 53 54 54 53 50 49 50 51 51 53 56
56 53 55 57 58 58 60 65 64 62 65 64 62 62 62 63 61 57 57 58 56 53 50 48 47 42 30 21 15 13 16 22 23 23 22 21 20 21 21 20 19 18 18 17 17 19 19 21 23 24 24 23 23 22 23 22 22 22 22 23 24 23 22 23 25 24 24 25 27 31 36 41 42 41 40 40 46 55 58 57 57 59 60 58 56
57 56 56 57 60 62 63 65 64 62 63 63 61 60 60 60 58 57 56 54 50 43 38 36 33 25 17 14 16 19 22 23 23 21 20 19 20 21 21 20 19 17 17 16 17 18 18 19 21 22 23 22 22 22 22 21 22 23 22 23 24 23 23 24 25 24 23 25 25 27 31 32 34 36 32 31 37 44 52 57 57 59 64 63 57
58 58 58 60 63 64 65 66 66 64 62 60 58 58 59 57 56 59 55 49 43 32 27 26 21 17 17 20 23 26 26 23 22 20 19 19 19 21 21 20 18 18 18 17 17 17 18 19 20 21 22 22 22 22 21 21 22 23 23 24 24 23 24 24 25 25 25 25 26 28 29 29 35 40 38 40 40 34 38 48 48 48 55 60 59
57 59 63 65 64 64 65 67 67 64 62 60 59 60 59 56 56 56 49 42 34 25 22 22 20 21 25 27 27 26 23 20 20 20 20 21 21 21 21 19 18 18 18 17 17 17 18 19 19 20 21 22 22 22 22 22 22 23 23 24 25 24 24 23 23 24 26 27 27 30 31 31 36 38 38 44 47 40 40 46 46 42 42 48 55
56 62 69 69 66 64 64 65 64 62 60 61 61 61 60 57 54 50 45 37 27 24 25 23 23 26 28 29 28 26 23 23 23 23 22 22 22 21 20 19 19 19 18 18 18 18 18 19 19 20 21 21 21 22 22 23 24 24 24 25 25 25 24 23 23 22 23 25 28 30 30 31 33 33 32 38 46 48 50 54 52 48 45 44 48
60 66 71 69 65 64 62 62 62 61 60 61 60 59 58 55 49 45 40 30 26 28 26 23 25 30 34 37 37 34 32 30 28 25 23 22 22 22 21 20 20 20 19 19 19 19 19 20 20 20 21 21 22 22 23 24 25 25 26 26 25 25 24 22 21 20 19 20 23 25 27 29 31 32 32 34 40 45 51 58 58 57 55 51 46
63 68 68 65 63 62 61 61 60 59 57 57 57 54 53 50 43 39 34 29 30 30 23 22 29 37 44 46 42 39 36 32 29 27 24 23 23 22 22 22 21 21 20 20 20 20 20 21 20 21 21 21 22 23 23 24 25 26 27 26 24 22 20 18 16 14 13 13 14 16 19 23 26 29 32 34 36 37 41 46 49 51 52 46 41
64 65 63 63 62 62 61 58 54 53 52 54 57 55 51 46 40 38 38 37 34 26 21 24 30 37 42 39 35 34 33 31 30 29 27 25 24 23 23 23 23 22 22 22 21 21 21 21 21 21 21 22 23 23 23 24 26 27 26 24 20 16 14 11 9 7 6 6 6 7 8 10 13 18 22 27 32 34 36 38 37 38 39 37 34
60 59 60 62 62 61 60 55 49 50 50 51 55 54 50 46 41 39 37 32 25 21 22 23 25 30 31 29 28 29 29 28 28 28 28 28 28 26 25 25 25 24 23 23 23 22 22 22 22 22 22 22 22 23 24 26 27 26 23 19 15 11 8 6 4 3 2 2 2 2 2 3 4 5 7 10 15 20 27 32 35 37 37 35 34
58 59 62 63 61 59 58 54 50 52 55 57 58 58 57 55 48 39 29 21 17 19 19 19 23 26 25 24 24 24 23 24 25 26 27 30 31 31 29 28 27 26 25 24 24 23 23 23 23 22 22 23 23 25 27 27 26 23 18 14 10 7 5 3 2 2 1 1 1 1 1 1 1 1 1 1 2 4 8 13 19 25 28 31 34
Wind_Speed
15 17 16 16 15 15 14 12 11 10 9 8 7 5 3 1 1 3 5 6 7 8 9 10 11 11 11 12 11 11 11 12 13 14 14 15 15 16 16 16 16 16 15 14 12 11 11 11 10 10 10 10 10 11 11 12 13 14 15 15 15 16 17 18 19 20 19 18 17 15 14 13 13 13 13 13 13 13 13 14 14 14 14 14 15
14 17 17 17 16 15 15 13 12 11 10 9 8 6 5 3 2 3 4 5 7 7 8 9 10 10 11 11 11 11 11 11 12 13 13 14 14 15 16 16 16 15 15 14 13 11 11 10 10 10 10 10 10 10 11 12 13 14 15 16 16 17 18 18 19 19 19 18 17 16 14 13 12 12 12 13 13 13 13 14 14 14 14 15 16
12 17 18 17 16 16 15 14 13 12 11 10 9 8 6 4 3 2 4 5 6 7 7 8 9 10 10 10 10 10 10 11 11 12 12 13 13 14 15 15 15 15 15 14 14 13 11 10 10 10 10 10 10 10 11 11 13 14 15 16 17 18 19 19 18 18 17 17 15 15 14 13 12 12 12 12 12 13 13 14 14 15 15 16 17
10 15 18 18 18 16 15 15 14 13 11 10 10 9 7 5 3 2 3 4 5 6 6 7 9 9 10 10 10 10 10 10 11 11 11 12 12 13 14 14 14 15 15 15 14 13 12 11 10 11 10 10 10 10 10 11 13 14 15 16 18 18 19 18 18 17 16 15 14 12 13 13 12 11 11 11 12 12 13 14 15 15 16 17 18
9 14 18 19 19 16 15 15 15 13 12 11 10 10 8 6 4 2 2 3 4 5 6 7 8 8 9 9 9 9 10 10 11 11 11 11 12 12 13 13 14 14 14 15 14 14 13 11 11 11 10 10 10 11 11 12 13 14 15 16 17 17 18 17 16 15 14 13 12 11 11 12 12 11 11 11 12 13 13 14 15 16 17 18 19
9 13 17 19 19 17 16 15 15 14 13 12 11 10 8 7 4 2 2 2 3 4 5 7 7 8 9 9 9 9 10 10 10 11 11 11 11 12 12 13 13 13 14 14 14 14 13 12 11 11 10 10 10 11 12 13 13 14 15 16 16 16 16 15 14 12 11 10 10 10 10 11 12 11 11 11 12 13 14 15 16 17 17 18 19
11 13 16 19 19 18 17 16 16 14 13 12 11 10 9 7 5 3 2 2 2 4 5 6 7 7 8 9 9 9 10 10 10 11 11 11 11 11 11 12 12 13 13 14 14 14 13 12 11 10 10 9 10 11 12 13 13 13 14 15 15 15 14 13 12 10 9 9 9 9 9 10 11 11 10 11 11 12 13 14 15 16 17 18 18
12 14 16 19 20 19 18 17 16 15 14 12 12 10 9 8 5 3 3 2 2 3 4 5 6 7 7 8 9 9 9 9 10 10 10 10 11 11 11 11 12 12 12 13 13 13 13 12 11 10 9 9 11 12 13 13 13 14 14 14 14 13 12 11 9 8 8 7 8 8 9 10 11 10 10 10 11 12 13 14 15 16 17 18 18
11 14 16 18 20 20 19 18 16 15 14 13 12 10 9 8 6 4 3 2 2 2 4 4 5 6 7 8 8 9 9 9 9 10 10 10 10 11 11 11 11 12 12 12 13 13 13 12 11 10 10 10 11 13 13 13 13 13 13 12 11 11 10 9 7 6 6 6 6 8 9 10 9 8 8 8 10 11 12 14 15 16 17 18 19
10 13 15 18 20 20 20 18 17 15 14 13 11 10 10 8 7 5 4 3 2 2 3 4 5 6 7 8 8 9 9 9 9 9 9 10 10 10 11 11 11 11 12 12 12 12 12 12 11 10 10 10 11 13 13 13 13 13 12 11 9 8 8 6 5 4 4 5 6 8 8 8 7 7 7 8 10 11 13 14 16 17 17 18 19
10 13 15 18 20 21 20 19 17 15 14 13 12 11 10 9 7 6 5 3 2 1 2 3 4 5 6 7 8 8 8 9 9 9 9 9 9 10 10 11 11 11 11 11 11 12 12 12 11 11 10 10 11 12 12 12 12 12 10 9 7 6 5 4 4 4 4 3 5 7 6 5 5 6 7 8 10 12 13 15 16 17 18 19 20
8 11 15 17 20 21 21 20 18 15 14 13 12 11 10 9 8 6 5 4 2 1 1 2 4 5 6 7 8 8 8 8 8 8 8 8 9 9 10 10 11 11 11 11 11 11 11 12 11 11 10 10 11 11 11 11 11 10 9 8 6 4 3 3 3 3 3 2 5 5 3 4 5 6 8 9 11 13 14 15 16 17 18 19 20
5 9 14 17 19 20 21 20 18 16 14 13 12 11 9 8 8 7 5 4 2 2 1 2 3 5 6 7 7 7 7 7 7 7 7 8 8 9 9 9 10 10 11 10 10 10 11 11 11 10 10 10 10 10 10 10 10 9 8 6 5 3 2 2 3 4 2 2 4 3 3 4 6 7 9 11 13 14 15 16 17 18 19 20 21
4 8 13 16 18 20 21 19 17 15 14 13 12 11 9 9 8 7 5 4 3 2 1 2 3 4 6 6 6 6 6 6 7 7 7 7 7 8 8 8 9 9 10 10 9 10 10 10 10 10 9 9 9 9 9 9 8 7 6 5 4 2 1 1 3 4 4 2 3 3 3 5 7 8 10 11 13 14 15 17 18 18 19 20 21
5 9 12 15 16 18 19 19 17 15 14 13 12 11 10 9 7 6 5 5 4 3 1 1 2 4 5 5 6 6 6 6 6 6 6 6 6 7 7 7 8 8 9 9 9 9 9 9 9 8 8 8 8 8 8 8 7 6 5 4 3 2 1 2 3 5 5 3 4 5 6 6 8 9 11 11 13 15 16 17 18 19 19 20 20
6 8 11 13 15 17 18 18 16 15 14 13 12 12 10 9 7 6 6 5 5 3 2 1 2 3 4 5 5 5 5 5 5 5 5 5 6 6 7 7 7 7 8 8 8 8 7 7 7 7 7 7 7 7 7 7 6 5 5 4 3 2 2 3 5 6 5 3 4 6 8 8 9 10 11 12 13 14 16 17 18 19 19 20 20
7 7 9 11 14 16 17 17 16 15 14 14 13 12 10 8 7 7 6 6 5 4 2 1 1 3 3 4 5 4 4 5 5 5 5 5 5 6 6 6 6 6 6 7 6 6 6 5 5 5 5 4 5 5 5 5 5 5 4 4 3 4 4 6 8 9 7 6 6 8 9 10 11 12 12 13 14 15 16 17 18 19 19 20 21
7 7 7 10 13 15 16 16 15 15 14 14 13 12 10 8 8 8 7 7 6 4 3 1 1 2 3 3 4 4 4 5 5 5 4 4 4 5 5 6 6 5 5 5 5 5 4 4 3 3 2 2 3 3 4 4 4 4 5 5 5 5 7 8 10 10 9 10 10 11 12 12 13 14 14 15 16 16 17 18 18 19 19 20 21
8 8 8 10 13 15 15 16 15 15 15 14 13 12 10 9 8 8 8 7 6 4 3 1 1 1 2 3 3 4 4 4 4 4 3 3 3 3 3 4 5 5 5 4 4 3 3 2 2 1 1 0 1 2 3 4 4 5 6 6 7 7 9 11 12 12 11 11 12 13 14 15 15 15 16 17 18 18 19 19 19 20 20 21 22
9 9 8 10 13 15 15 15 15 15 14 14 13 11 10 9 8 8 8 7 6 4 2 1 1 1 2 3 3 4 4 4 3 3 2 2 2 2 2 2 3 4 4 4 4 3 2 1 0 0 1 1 2 3 4 5 6 6 7 8 8 9 10 13 15 14 13 13 13 14 15 16 17 16 17 18 19 20 20 21 21 21 22 22 22
10 10 9 11 13 14 15 15 14 14 14 13 12 11 9 8 8 8 7 6 4 3 2 1 0 1 2 2 3 3 3 3 2 2 2 2 1 1 1 1 1 2 3 4 4 4 3 2 2 2 2 3 4 5 6 7 8 8 9 9 10 11 11 13 17 18 17 16 16 15 16 17 18 18 19 19 20 21 21 22 23 23 23 23 23
10 10 10 11 12 13 14 14 13 13 13 12 11 10 9 8 7 7 6 5 4 3 1 0 0 1 2 2 2 3 3 3 2 2 2 2 1 1 0 0 1 1 2 3 4 5 4 4 3 3 3 4 5 6 7 8 9 10 10 11 11 12 13 14 17 20 19 19 19 18 17 18 19 19 20 21 21 22 23 24 24 25 24 24 23
10 10 10 10 11 12 12 12 12 11 11 11 10 9 8 8 7 6 5 4 3 2 1 1 0 1 1 1 2 2 3 3 3 1 1 2 1 1 2 1 1 1 1 2 3 4 4 5 4 4 4 4 5 6 8 9 10 11 12 12 13 13 14 15 17 20 21 21 20 19 19 19 20 21 21 22 23 23 24 25 25 25 24 24 23
11 11 10 10 11 11 11 11 11 11 10 9 8 8 7 7 6 5 3 3 3 2 2 2 1 1 1 1 1 2 1 1 1 1 1 2 3 3 3 3 3 3 3 3 3 3 3 4 4 4 4 4 3 4 6 8 9 11 12 12 12 12 13 15 16 20 22 21 20 20 19 20 21 22 22 22 23 23 24 25 25 24 23 24 23
12 12 11 11 11 10 10 11 10 9 9 7 6 5 5 5 5 3 2 3 3 3 3 2 1 0 1 1 1 1 1 1 1 1 2 3 4 4 4 4 4 5 4 4 4 4 3 3 3 5 5 4 3 1 2 5 8 9 9 9 10 11 12 14 16 18 20 20 20 20 19 20 21 22 21 21 22 23 24 25 25 24 23 23 24
12 13 13 12 12 11 9 9 8 6 5 5 4 3 3 4 4 3 3 3 4 4 3 3 2 2 2 1 1 1 2 2 1 2 4 4 5 5 5 5 5 5 4 4 4 3 3 2 3 4 4 5 4 3 1 2 5 6 6 7 8 9 10 12 13 15 17 18 18 18 19 20 20 20 21 21 22 22 22 23 23 23 23 22 23
13 14 15 13 13 13 10 8 8 6 3 2 2 2 3 4 5 4 4 4 5 4 4 4 3 3 2 1 2 1 2 2 2 4 4 4 4 5 4 4 4 3 3 3 3 2 2 1 1 2 3 5 5 5 3 2 3 4 5 6 6 7 7 8 9 11 14 15 15 16 16 17 17 19 20 21 21 21 21 21 22 23 23 22 22
14 16 15 14 13 11 9 9 8 4 3 3 4 4 4 5 5 4 5 5 6 5 5 4 4 3 2 2 2 1 1 2 4 4 4 4 4 4 3 3 3 3 3 3 3 2 2 1 1 2 2 3 4 5 6 7 7 7 7 9 9 9 8 9 9 11 13 13 13 14 14 15 16 17 19 20 20 21 21 20 21 22 22 21 20
13 15 12 10 9 8 8 8 5 2 5 6 6 5 4 5 5 5 5 6 6 5 4 5 5 3 1 2 2 1 1 2 4 3 2 3 3 3 3 3 4 5 5 5 5 6 6 5 4 4 5 5 5 6 6 7 8 7 8 9 9 9 10 10 10 12 13 12 12 14 14 15 16 17 18 19 20 20 20 20 20 20 20 20 19
10 10 8 7 7 8 7 5 4 5 8 8 6 4 4 5 5 5 5 5 4 3 4 5 5 4 2 1 0 1 1 2 3 1 1 2 2 3 3 3 4 5 5 6 7 7 7 6 6 6 7 7 7 7 6 6 7 8 8 8 8 9 10 10 10 12 13 12 12 13 14 15 16 17 18 19 19 19 19 19 19 18 18 19 18
6 5 6 6 6 6 5 5 7 9 10 7 5 5 5 5 5 6 6 6 5 5 5 4 4 4 4 2 1 1 1 2 2 1 0 2 2 2 2 3 5 5 5 6 7 7 7 6 7 7 8 8 8 8 8 7 8 8 8 9 9 9 10 10 11 12 12 12 12 12 13 15 15 16 16 17 17 18 19 19 19 18 17 17 18
7 6 5 6 5 5 6 8 10 11 9 7 6 6 6 7 8 8 7 7 6 5 5 4 3 4 4 4 4 2 1 2 3 2 1 1 1 1 2 3 5 5 5 5 6 6 7 7 7 8 9 9 9 9 9 9 9 9 9 9 9 10 10 11 11 12 12 12 12 12 12 14 15 15 15 15 16 17 18 19 19 18 17 16 17
8 6 5 6 5 6 8 9 10 10 8 7 7 7 8 9 8 7 7 6 5 4 5 4 4 4 4 4 6 6 4 4 3 2 1 1 1 2 1 2 3 5 5 5 5 6 6 6 7 8 8 9 9 9 10 10 10 10 10 10 11 11 11 11 11 11 12 12 12 12 12 12 14 14 14 14 15 16 17 17 18 18 17 16 16
8 5 4 5 6 7 10 10 9 8 8 8 8 8 9 9 7 6 6 5 5 4 5 5 4 5 4 3 5 7 7 6 6 6 5 4 5 4 2 2 4 5 5 6 6 7 7 7 7 7 7 8 9 9 9 9 9 10 10 11 12 12 11 11 11 11 12 12 13 13 13 12 13 13 13 14 15 15 15 16 17 17 17 17 16
8 6 5 6 7 9 10 10 9 9 10 10 10 9 10 9 7 7 6 6 5 5 5 5 5 5 3 2 3 2 1 3 4 3 3 3 2 1 1 3 4 5 6 6 7 8 8 8 8 8 8 8 9 9 9 8 9 9 9 10 11 11 11 11 11 11 12 13 14 13 13 13 12 12 12 13 14 15 15 16 16 16 17 17 16
9 6 6 8 10 12 11 10 10 9 10 10 10 10 10 9 8 7 7 6 6 6 6 6 6 4 2 2 2 4 4 5 4 4 4 5 5 4 4 5 5 7 7 7 8 8 9 9 9 9 9 9 9 9 8 8 8 8 8 8 9 10 10 10 10 11 12 13 14 13 12 12 11 11 11 12 13 14 15 15 15 16 17 17 17
9 7 8 11 14 14 12 10 10 9 9 11 11 11 10 9 8 7 7 6 5 6 6 5 5 4 3 2 3 4 5 5 5 4 5 6 6 5 6 7 7 7 8 8 9 9 9 9 9 9 9 9 9 9 9 8 8 8 7 8 8 9 10 10 10 11 11 12 13 13 11 10 11 10 10 11 12 13 13 14 14 15 16 17 17
10 11 12 14 15 14 12 11 11 10 10 11 12 11 10 9 8 7 6 6 5 5 5 4 4 5 4 2 3 4 4 3 4 5 5 5 6 6 6 7 7 8 8 9 9 9 9 9 8 8 9 9 9 9 9 9 9 9 9 9 9 10 10 10 11 11 11 11 11 10 10 10 10 10 10 11 12 12 12 13 14 15 16 16 16
11 14 15 15 14 12 11 11 10 11 11 12 12 11 10 8 7 6 6 6 6 5 5 3 3 4 4 3 3 5 5 4 4 5 5 5 5 5 6 7 8 9 9 9 8 8 8 8 7 8 8 8 9 9 8 8 9 10 10 10 11 10 10 10 11 12 11 11 10 10 11 11 10 11 12 12 12 13 13 14 14 14 15 15 15
14 16 16 15 13 11 10 10 10 10 11 12 12 11 10 8 7 7 6 6 6 5 5 4 3 3 4 5 6 6 5 4 5 6 6 6 6 6 7 8 9 10 9 9 8 7 7 7 7 8 8 9 9 8 8 8 8 9 10 11 11 11 11 11 11 11 11 12 12 12 13 12 11 11 12 13 12 12 14 14 14 14 14 14 15
17 17 17 15 13 12 11 11 10 10 10 11 12 11 10 8 7 7 7 7 7 7 6 5 4 5 7 9 9 7 5 5 5 6 6 6 6 7 8 9 10 10 9 8 8 7 8 8 8 8 9 10 10 9 9 9 9 9 9 11 12 12 12 12 11 11 12 12 13 13 14 14 14 13 12 12 12 12 13 14 14 15 16 15 14
17 17 16 15 13 13 12 11 9 10 11 10 11 11 10 9 8 8 8 8 9 10 10 8 8 10 12 11 9 7 5 5 6 6 7 7 7 8 9 10 10 10 10 9 9 9 9 9 9 9 10 11 11 10 10 11 10 9 9 10 12 13 13 12 12 12 13 13 13 13 14 15 16 16 15 14 13 13 13 14 14 15 16 17 16
15 15 15 15 14 13 12 10 9 10 11 10 10 10 10 9 9 10 11 11 10 11 11 10 11 12 11 9 6 5 4 5 6 6 7 8 8 9 10 10 10 10 11 11 11 10 10 10 10 10 11 12 13 13 13 13 12 12 12 12 12 14 14 13 14 16 16 14 14 14 15 17 17 18 18 17 16 15 15 15 15 16 17 19 18
14 14 15 15 14 12 10 9 9 10 10 10 10 10 10 10 10 10 12 13 12 11 11 11 11 10 8 6 4 4 5 5 6 7 8 9 9 10 10 11 11 11 11 12 12 11 12 11 11 11 12 14 15 16 16 16 15 16 16 17 17 17 17 16 16 18 18 17 16 16 17 16 17 19 19 18 19 18 18 18 18 19 19 20 19
15 14 15 15 13 11 10 9 9 10 10 10 10 10 10 11 10 11 14 15 13 12 12 11 10 8 6 5 4 4 5 5 6 8 9 10 11 11 11 12 12 12 12 13 13 13 13 13 13 12 13 14 16 17 19 19 20 20 21 21 22 22 21 20 19 17 17 17 17 16 17 17 16 18 18 18 20 20 19 20 21 22 23 23 22
16 16 16 15 13 12 11 11 11 11 12 12 12 12 11 11 13 15 15 14 13 13 12 10 9 7 5 4 5 5 6 7 8 9 10 11 12 12 13 13 13 13 13 14 14 15 15 15 15 15 14 15 16 17 20 22 23 24 25 25 26 26 26 25 22 19 16 16 17 17 18 18 18 20 19 19 19 20 20 22 24 25 25 25 25
17 16 16 15 15 15 13 13 13 13 13 12 13 13 12 13 15 16 14 12 13 13 12 9 7 6 4 5 6 8 9 10 10 11 11 12 12 13 14 14 14 14 15 15 16 16 16 16 16 16 16 16 17 18 20 22 25 26 27 28 28 29 30 29 27 24 20 16 16 18 18 17 19 20 20 20 20 21 21 23 26 28 28 27 27
17 17 16 15 15 15 14 14 15 14 13 12 12 13 13 14 14 13 12 13 14 14 12 9 7 6 5 7 9 9 10 10 11 12 12 13 14 15 15 15 15 16 16 16 17 17 17 18 18 18 18 18 19 19 20 23 25 27 27 27 27 28 29 29 29 28 25 20 17 17 17 17 18 20 20 21 21 22 23 25 29 31 31 30 30
18 17 16 16 16 16 15 16 15 14 13 12 11 12 13 13 13 13 14 16 16 14 11 9 8 8 8 10 10 10 10 11 12 12 13 15 15 16 17 17 17 17 17 17 18 18 18 19 19 20 20 20 21 22 23 25 26 26 26 26 26 26 27 27 27 26 26 24 19 17 16 15 15 18 20 20 21 23 24 27 30 32 33 34 33
19 17 16 16 16 16 16 16 15 13 12 11 10 11 11 13 15 16 18 18 17 14 12 11 10 10 11 11 11 11 12 12 13 14 15 16 16 17 18 18 18 18 18 19 19 19 19 20 20 21 22 22 23 24 25 26 26 26 25 25 25 25 24 24 24 24 24 24 21 19 17 15 13 14 17 18 19 21 23 27 30 32 35 36 34
19 18 17 17 17 16 16 15 14 12 11 11 11 12 13 15 17 18 19 18 17 15 14 12 11 12 13 13 13 14 14 15 16 16 17 17 18 18 18 19 19 20 20 20 20 20 20 20 21 21 22 23 24 25 26 26 27 26 25 25 24 24 24 23 23 24 24 24 24 22 20 18 15 14 15 16 17 19 21 24 27 30 34 36 35
Wind_Direction
200 202 202 199 193 193 192 196 198 199 205 208 218 223 226 252 336 8 12 16 24 32 37 40 43 43 44 46 49 52 54 55 55 56 55 56 57 58 58 59 59 59 60 61 63 64 66 69 75 82 88 92 96 99 100 101 102 102 102 103 104 106 109 111 111 110 108 104 100 96 92 87 83 78 73 68 63 58 53 50 46 43 40 35 31
200 204 207 207 200 196 196 200 203 205 210 213 223 232 238 251 294 354 5 7 18 26 35 38 40 43 43 45 47 50 53 54 55 55 55 55 56 58 58 59 58 57 57 58 59 62 66 70 76 83 89 95 99 101 104 106 108 108 108 108 106 108 110 111 112 112 111 109 107 102 95 86 79 73 68 64 60 54 49 44 40 37 34 30 27
197 202 208 211 207 200 199 203 208 210 213 218 225 235 244 252 277 338 359 0 13 22 31 35 39 42 43 45 45 47 51 52 54 54 54 54 55 57 58 58 58 57 56 56 57 58 63 70 75 83 89 96 101 104 108 110 111 112 112 111 112 112 113 114 115 115 113 111 109 106 100 89 77 69 64 60 56 51 45 39 34 31 28 26 23
202 201 204 210 211 205 203 206 211 213 217 222 228 236 245 253 268 318 349 358 9 20 26 33 38 41 43 45 46 47 49 50 52 53 54 53 53 56 57 57 57 56 56 55 55 56 59 66 74 82 89 96 103 106 109 111 113 115 114 114 116 117 118 120 119 118 116 114 111 106 99 90 79 68 62 58 52 47 40 35 30 26 25 23 19
210 205 203 207 210 209 207 209 214 217 221 225 231 238 245 253 263 295 334 354 4 17 24 32 37 39 44 45 47 48 48 50 49 51 52 52 52 53 55 55 55 56 56 56 55 55 58 63 73 81 89 98 104 108 110 112 115 117 117 117 119 121 122 122 121 120 118 115 110 103 94 87 78 68 62 56 48 40 34 30 26 22 20 19 17
213 210 206 204 208 211 211 213 217 220 223 228 234 240 246 251 257 269 313 336 353 13 25 31 35 39 44 46 48 48 48 48 48 49 49 50 51 51 53 53 53 54 55 56 56 56 58 63 71 81 90 98 104 110 114 115 117 119 119 119 120 121 122 122 120 118 113 105 99 94 88 81 73 66 59 51 42 33 26 23 21 18 15 13 13
216 214 208 204 207 211 214 215 219 223 226 231 235 241 247 249 254 256 279 305 345 14 27 30 33 39 43 46 49 49 48 47 47 46 46 47 49 51 51 52 51 50 53 54 56 57 58 62 70 81 90 99 107 112 115 117 118 119 120 121 123 124 124 123 120 115 105 96 91 87 81 75 69 62 53 42 33 27 20 17 15 13 11 8 7
218 214 209 206 207 211 216 218 220 224 227 233 237 242 247 249 250 247 258 284 341 15 28 29 32 38 42 47 49 49 48 47 47 44 44 45 45 49 50 51 50 49 50 51 54 57 59 62 69 79 89 100 109 114 115 116 118 120 123 125 126 128 128 125 120 113 104 101 102 93 80 69 63 56 45 33 24 19 14 12 9 7 5 3 2
217 214 210 206 207 212 216 219 220 224 228 232 238 242 246 248 246 246 256 276 327 16 26 26 32 37 43 47 50 50 49 47 46 44 42 41 42 45 49 50 50 49 48 48 52 55 59 63 69 78 90 102 111 116 118 120 121 124 126 128 128 127 128 126 121 113 107 111 106 88 76 66 57 47 35 23 16 11 6 4 4 2 360 358 358
224 219 212 209 209 212 216 219 220 222 227 230 235 241 244 246 245 248 253 264 303 8 20 24 33 38 44 47 51 50 48 47 44 43 40 39 40 42 46 49 49 50 48 47 49 54 60 63 70 80 92 104 112 118 122 124 125 126 128 128 125 122 125 122 111 93 86 103 95 74 66 57 46 36 23 12 7 3 359 358 358 356 355 354 355
234 227 217 211 208 212 216 218 220 221 224 228 233 239 243 246 247 248 251 256 277 341 12 25 35 40 45 47 49 49 48 47 44 41 39 37 38 40 42 46 48 50 50 47 47 52 59 64 72 81 93 104 113 119 123 126 125 127 129 128 124 118 116 102 84 59 46 55 71 69 60 45 29 18 9 1 357 355 354 353 352 351 351 351 351
231 226 218 209 209 212 215 218 219 219 222 227 231 237 241 244 247 248 249 252 262 301 356 24 36 41 45 48 48 49 48 46 45 41 37 36 35 38 40 42 46 49 51 49 46 51 58 65 72 81 92 103 112 119 122 124 125 128 130 131 130 120 105 70 36 20 28 40 62 64 42 23 10 360 354 351 349 348 348 347 347 347 346 347 348
222 208 209 207 210 213 215 218 217 219 222 226 231 236 238 240 243 245 248 248 252 271 318 24 36 44 46 48 48 46 46 45 45 41 36 33 32 37 38 40 45 48 51 51 48 51 58 65 73 81 90 100 111 118 121 124 127 131 133 137 140 135 121 44 2 355 28 68 62 43 6 358 349 346 343 343 342 340 341 341 342 343 342 343 345
210 187 200 206 212 217 217 216 217 219 221 225 230 232 234 236 239 241 244 248 249 262 296 22 36 43 46 45 45 43 41 43 43 40 36 31 29 33 36 38 41 47 50 52 50 52 58 64 72 80 89 99 109 117 122 127 131 136 141 146 152 157 181 358 342 330 336 11 29 360 341 341 334 334 334 334 334 334 336 336 337 338 338 339 342
202 190 200 209 217 219 217 216 216 219 222 225 227 229 231 232 235 239 242 247 253 258 282 3 33 41 46 43 41 40 37 40 42 40 37 31 25 25 32 35 38 44 48 52 54 54 57 62 70 79 90 99 109 118 125 131 137 145 152 158 173 200 257 305 311 301 303 340 1 328 324 330 323 322 325 327 328 328 330 331 332 333 334 335 338
217 203 206 212 216 216 216 216 217 219 222 224 226 229 230 231 234 237 241 247 254 255 265 337 34 40 42 42 38 35 33 34 37 39 38 32 23 17 21 28 34 40 46 52 54 55 56 60 67 78 90 101 112 122 131 140 149 157 166 177 198 232 264 286 289 285 291 323 330 311 313 316 312 315 318 321 323 323 325 326 328 329 330 330 333
229 220 215 212 210 210 214 216 220 222 222 225 228 231 230 232 233 235 242 248 254 255 258 320 29 35 37 39 37 31 26 24 27 31 34 30 22 12 7 14 25 33 41 50 55 56 58 59 66 75 86 103 117 131 143 151 164 173 184 201 221 248 265 276 282 285 297 310 309 302 304 308 309 311 312 314 316 318 319 321 323 324 326 327 330
231 224 215 209 207 208 213 216 221 222 225 227 229 232 232 232 234 237 243 249 252 255 265 299 21 33 34 35 33 26 22 19 20 22 25 30 26 12 3 2 9 21 32 43 52 59 61 60 63 64 74 106 129 149 161 172 186 197 208 222 238 252 264 271 275 282 294 303 307 307 305 306 307 308 309 310 311 314 315 316 319 320 322 323 326
223 222 213 205 204 208 215 219 221 223 226 228 230 233 233 234 236 240 245 251 254 258 271 295 13 22 26 27 23 21 24 19 17 17 12 21 29 16 4 359 359 6 14 23 34 43 56 65 69 52 48 159 198 200 205 211 216 222 229 237 246 255 266 273 275 279 288 294 301 305 306 307 307 309 309 309 310 311 312 313 315 316 317 319 321
216 215 209 202 202 208 215 220 224 226 228 229 233 235 236 239 238 243 247 253 258 260 271 291 353 21 19 18 15 16 22 16 12 9 359 4 24 23 1 355 352 352 355 359 4 6 14 28 38 320 268 259 254 245 247 247 243 243 247 251 255 262 271 279 283 285 289 292 296 301 305 307 307 308 308 309 310 310 310 311 313 313 314 315 317
212 208 201 199 203 208 213 219 223 225 229 231 232 236 239 240 242 248 253 256 260 262 269 308 6 25 13 13 11 5 9 10 4 354 344 341 359 24 349 331 331 332 334 338 339 336 330 325 311 295 269 254 251 253 257 258 257 258 263 265 266 270 275 282 288 290 293 296 298 300 301 301 301 304 306 307 308 309 310 311 311 312 312 313 314
207 206 199 199 204 208 213 216 221 224 229 232 233 236 238 240 245 249 254 256 257 268 272 194 20 16 11 9 1 356 358 348 337 339 342 339 351 10 357 324 312 312 316 325 327 324 323 320 320 313 294 272 261 256 257 259 262 265 269 272 272 272 276 282 286 290 294 296 297 298 297 296 296 299 302 304 306 308 308 309 309 310 310 311 312
204 204 202 205 206 208 213 215 221 227 231 234 235 235 238 240 244 247 252 255 256 259 197 181 192 49 12 329 347 359 351 326 319 352 15 6 35 66 69 63 70 57 5 352 341 336 337 336 342 333 315 299 278 264 260 261 263 265 269 273 273 273 275 279 283 287 291 293 295 297 297 296 297 299 301 302 303 304 304 305 306 307 307 307 308
199 200 204 207 204 204 210 217 225 228 229 230 231 233 239 242 242 246 247 244 244 218 188 190 176 86 320 310 4 359 326 319 352 25 49 69 80 79 81 81 81 74 62 62 44 22 15 5 10 5 349 337 308 276 266 264 266 268 271 273 274 276 276 279 282 286 289 292 295 297 297 299 301 303 304 303 303 304 303 304 305 306 306 305 305
196 199 199 199 200 204 211 213 215 218 220 219 225 233 239 238 233 231 219 219 227 214 194 166 140 163 260 293 10 7 14 71 47 55 85 98 99 89 83 81 79 70 64 74 66 53 51 45 36 24 12 8 3 325 256 255 263 268 273 278 279 280 281 284 285 288 291 294 295 295 296 300 302 304 306 306 306 307 307 306 306 306 306 305 305
192 199 196 199 203 204 204 199 199 212 216 211 222 232 229 217 203 200 198 203 213 210 180 160 181 204 215 245 39 50 56 48 51 113 107 97 97 91 83 78 78 72 65 70 68 61 56 49 29 13 2 358 357 6 45 217 248 264 272 281 281 282 284 286 288 289 291 296 301 300 300 302 304 305 307 308 309 311 312 309 307 306 306 307 307
192 204 199 196 203 202 196 199 211 227 227 209 213 199 188 185 188 193 192 194 198 197 182 179 193 197 195 137 95 83 66 72 102 118 115 102 101 102 95 88 85 78 70 65 63 61 63 61 352 342 332 333 333 338 343 307 302 309 306 308 304 298 296 298 300 297 300 310 317 315 311 309 309 310 310 310 311 312 313 313 311 309 308 308 310
197 201 196 187 197 201 199 211 220 226 227 223 206 194 187 184 195 197 193 199 197 200 193 172 170 182 169 137 136 113 87 124 124 122 123 110 107 113 102 92 77 45 36 42 32 22 33 20 306 317 314 320 319 319 328 330 338 341 329 327 326 323 319 317 316 313 318 328 330 325 321 318 316 315 314 313 315 315 315 315 316 313 309 307 310
199 192 196 194 195 194 194 205 215 224 227 224 207 197 199 203 205 200 202 208 209 208 178 148 152 163 152 151 148 118 127 151 138 126 115 100 82 70 50 30 21 5 360 8 6 4 6 357 341 336 333 333 326 321 332 335 333 334 327 321 318 317 317 318 318 318 324 329 328 326 324 320 318 317 318 320 322 322 320 318 318 317 312 308 309
212 203 211 212 196 188 188 195 213 225 227 228 220 213 220 221 210 203 209 208 203 186 160 157 150 143 157 174 121 112 117 140 149 136 62 53 40 41 25 1 4 355 351 0 1 1 358 348 340 337 334 328 322 321 328 326 321 324 321 311 304 303 305 309 312 316 320 321 320 320 319 318 318 319 321 324 325 324 323 321 320 319 314 309 309
230 231 221 214 202 189 191 207 220 224 227 229 225 224 228 221 204 198 202 197 189 177 174 175 152 152 173 181 195 213 127 131 173 223 22 16 3 29 17 353 2 351 343 352 352 353 350 341 336 333 330 320 314 316 318 318 317 316 311 306 305 304 302 305 309 311 312 314 317 318 318 317 319 322 323 324 324 324 325 324 324 323 318 311 308
218 228 214 214 212 199 203 217 223 225 223 222 223 223 217 210 205 200 198 200 196 188 189 195 201 204 191 172 168 189 204 173 196 232 233 13 6 358 351 352 351 331 326 339 341 343 344 341 335 330 327 322 319 319 317 317 318 314 308 305 307 308 306 308 310 307 308 312 318 321 319 317 321 324 324 323 323 324 328 329 327 325 322 314 306
223 224 212 217 214 209 216 224 225 222 219 222 224 221 218 215 210 203 201 203 196 194 210 222 230 221 194 175 167 177 195 195 194 215 247 304 257 248 299 323 314 307 317 330 331 334 340 341 334 330 328 323 321 318 313 314 316 314 310 309 311 313 312 312 310 306 308 313 319 322 320 320 322 322 324 325 325 325 329 330 328 325 324 319 310
235 225 222 225 219 219 224 228 226 220 220 222 217 212 218 216 207 205 207 206 196 205 223 226 226 219 200 197 196 186 181 184 184 185 195 200 204 210 220 267 290 306 319 324 330 331 333 336 332 330 325 317 316 313 308 308 310 310 309 309 309 312 314 314 311 308 309 313 319 323 323 322 320 318 322 327 326 325 327 330 329 326 326 325 319
229 221 235 236 225 225 227 228 222 219 220 219 217 213 214 212 210 212 215 216 207 212 224 219 221 226 218 226 253 248 206 215 189 171 198 201 197 225 323 319 316 322 327 330 335 335 331 333 333 331 324 315 314 313 309 306 306 307 306 305 305 309 315 316 312 310 310 314 320 323 322 321 319 317 321 325 325 323 327 332 331 328 328 329 327
229 229 244 243 237 235 234 228 219 219 221 222 222 216 212 209 209 214 220 222 212 217 226 225 229 233 228 245 303 334 322 306 343 16 342 332 342 353 344 332 331 331 334 339 339 340 338 336 336 334 328 322 320 321 318 314 312 312 310 310 311 314 318 319 316 312 310 313 317 320 320 320 320 319 321 323 323 322 328 333 332 329 328 329 329
228 235 243 245 246 244 238 230 221 218 219 222 222 217 211 207 207 212 221 223 213 222 232 238 252 265 264 290 329 324 319 320 333 341 330 324 327 340 337 331 336 334 338 342 339 338 338 338 337 335 332 330 328 330 328 326 325 325 325 326 325 326 326 325 319 312 311 311 314 317 320 321 321 322 323 320 319 321 327 329 330 330 328 327 327
237 235 238 242 245 244 236 230 225 222 222 223 222 220 216 212 213 213 220 226 215 219 233 243 269 289 289 291 307 300 301 301 298 314 323 317 323 336 336 333 332 332 337 339 337 337 338 340 340 337 336 336 336 339 338 336 337 337 336 335 335 336 335 330 323 317 313 309 310 313 316 318 319 320 320 317 316 319 323 325 327 329 328 326 326
236 224 227 236 241 242 235 230 226 224 224 224 224 225 221 217 213 210 217 222 209 203 212 215 244 273 280 263 254 263 264 269 287 306 311 311 321 328 327 325 324 328 335 338 339 339 339 342 345 344 340 339 343 348 345 340 341 339 336 336 337 337 338 336 330 324 319 315 313 311 309 313 318 319 317 315 315 317 319 321 323 325 326 324 324
217 216 222 231 236 240 240 237 230 222 221 221 221 222 219 215 209 204 205 201 191 192 197 186 195 243 257 245 243 244 245 263 288 296 302 310 315 316 317 319 321 327 333 338 339 339 341 346 351 347 338 339 344 346 344 342 342 340 337 334 333 334 338 340 336 329 321 319 317 313 310 311 315 315 313 312 313 315 315 316 320 320 321 319 317
206 213 220 226 234 239 243 243 231 216 211 209 210 210 208 206 203 196 192 187 180 183 191 180 175 215 229 226 228 235 245 268 284 291 299 303 305 311 314 316 319 325 332 335 337 340 342 347 351 345 337 336 339 340 340 342 345 343 340 333 329 332 339 340 335 327 320 318 316 313 312 310 309 310 310 310 311 313 312 312 315 315 313 312 311
207 214 218 224 233 238 241 239 224 208 201 197 196 195 192 194 199 197 193 188 182 178 176 171 183 208 215 213 218 231 253 278 287 292 296 299 303 308 309 312 318 324 329 332 337 341 340 346 350 343 337 333 334 338 337 339 343 341 339 333 327 330 338 339 330 324 322 317 314 312 308 306 307 310 311 311 310 309 306 304 306 306 305 305 304
206 211 216 223 230 235 237 227 214 205 199 196 191 187 188 194 204 205 194 183 181 178 169 172 191 205 209 208 215 241 269 282 288 290 291 294 298 302 305 309 317 323 328 331 333 335 336 343 347 340 336 332 332 335 335 337 339 336 338 335 329 329 334 339 329 322 322 319 315 311 306 307 307 307 310 311 309 305 302 301 302 300 297 296 296
203 207 216 223 226 225 220 211 207 203 199 198 194 189 195 201 205 204 192 184 183 178 172 186 200 203 207 213 225 253 270 275 279 282 285 291 295 299 304 307 315 323 325 326 326 328 331 334 337 337 335 330 331 333 331 334 335 332 333 330 327 327 330 334 329 322 320 319 316 309 304 307 304 301 304 305 303 303 304 305 304 300 293 289 288
205 206 212 217 217 211 204 200 196 192 190 189 190 191 198 203 203 198 191 187 182 176 183 199 205 206 213 227 244 257 267 276 280 285 289 292 296 301 304 306 313 319 318 319 321 323 326 326 329 331 331 329 330 330 328 330 330 327 326 325 324 324 325 327 328 324 320 315 310 302 299 299 293 290 293 293 293 296 299 298 298 295 290 288 286
206 207 209 209 207 201 197 194 188 182 180 181 187 194 201 204 200 196 193 188 182 186 201 208 207 215 227 243 267 278 283 286 285 288 289 290 296 300 302 306 311 312 313 316 319 320 320 321 323 325 326 325 325 324 325 326 327 325 324 324 323 323 323 324 325 324 319 312 303 296 294 293 288 287 288 285 285 288 290 290 289 286 284 284 284
207 206 207 205 199 196 194 190 185 180 180 184 189 195 200 201 198 198 195 187 190 206 216 212 214 228 249 268 275 277 278 280 282 285 288 291 297 300 302 307 309 310 313 316 316 316 316 316 317 319 320 320 319 321 323 324 324 324 323 324 323 323 324 324 323 322 320 315 304 297 295 291 286 286 285 283 281 281 282 283 282 279 278 279 280
205 203 202 200 193 192 192 187 182 181 182 186 190 195 197 198 202 203 196 194 208 223 221 215 228 235 245 259 264 272 279 285 291 292 294 295 296 299 303 306 308 310 313 314 314 314 313 313 314 315 316 317 318 319 320 321 321 321 322 322 323 322 322 322 322 321 320 319 313 303 298 292 288 285 281 279 279 277 275 274 274 274 276 277 278
201 198 196 193 190 190 188 184 182 180 180 183 190 196 199 202 209 209 207 211 220 226 225 227 235 233 240 252 261 277 287 293 298 298 298 297 295 297 299 304 307 309 311 311 312 312 312 312 313 314 316 317 317 317 318 319 319 319 320 321 321 320 320 321 321 320 319 320 319 313 305 296 290 287 284 279 276 275 273 272 273 275 276 276 276
199 195 192 189 189 190 186 184 183 182 183 188 194 200 204 211 217 217 216 219 221 224 228 232 236 242 251 260 270 281 286 290 294 296 298 297 296 297 299 302 304 306 308 309 310 311 311 311 313 314 315 315 316 317 317 317 318 319 320 321 320 319 319 319 319 318 318 319 321 320 315 308 298 289 287 286 281 274 271 270 272 273 274 275 277
196 193 192 192 193 191 189 189 189 192 198 202 206 210 214 220 223 224 224 224 224 226 230 237 249 258 262 268 274 279 283 286 288 290 293 296 298 299 299 300 301 302 304 306 308 309 311 312 313 314 314 315 315 316 317 317 319 320 321 321 320 319 318 318 317 316 316 316 317 318 317 315 312 302 294 292 290 285 277 272 271 271 273 276 277